Simultaneous Nadir Overpasses (SNOs) Predictions

Prediction of SNOs between METOP-A and NOAA-19 Satellite Orbit:

Table of predicted SNOs for the next 14.0 days since TLE Epoch: 5/24/2013
Index Date (METOP-A) Time (METOP-A) Lat,Lon (METOP-A) SZA (METOP-A ) Date (NOAA-19) Time (NOAA-19) Lat,Lon (NOAA-19) SZA (NOAA-19 ) Distance(km) Time Diff (sec)
1 05/29/2013 12:39:33 73.46, -16.75 51.80 05/29/2013 12:38:24 73.47, -16.73 51.81 0.73 69
2 05/29/2013 13:30:15 -73.44, 150.52 128.24 05/29/2013 13:29:21 -73.46, 150.56 128.21 2.62 54
3 05/29/2013 14:20:55 73.44, -42.14 51.77 05/29/2013 14:20:28 73.44, -42.19 51.77 1.62 27
4 05/29/2013 15:11:37 -73.41, 125.13 128.27 05/29/2013 15:11:25 -73.43, 125.10 128.25 1.87 12
5 05/29/2013 16:02:18 73.37, -67.64 51.69 05/29/2013 16:02:31 73.37, -67.53 51.68 3.57 13
6 05/29/2013 16:52:59 -73.39, 99.74 128.30 05/29/2013 16:53:29 -73.40, 99.65 128.29 3.08 30
7 05/29/2013 17:43:40 73.35, -93.03 51.66 05/29/2013 17:44:35 73.34, -92.98 51.64 1.76 55
8 05/29/2013 18:34:22 -73.32, 74.24 128.37 05/29/2013 18:35:32 -73.32, 74.31 128.38 2.23 70




NCC Satellite Simultaneous Nadir Overpasses (SNOs) Prediction Service
